Vorticity
4 5 6 7 8 8 8 7 7 7 6 6 6 6 5 5 5 4 4 4 4 4 4 4 3 2 1 0 0 -0 -0 -0 -1 -0 -0 1 2 3 4 6 7 8 9 9 8 7 6 7 7 7 8 7
6 7 8 8 8 7 7 6 6 6 5 5 5 5 5 5 5 5 5 4 4 4 3 2 1 1 1 1 1 0 0 0 0 1 2 4 6 8 10 12 14 16 17 17 16 15 14 12 10 10 10 10
9 9 8 8 7 6 6 5 5 5 5 5 5 5 5 5 5 5 5 4 4 4 3 3 3 2 2 1 1 0 0 1 1 2 4 6 8 11 14 16 19 21 23 24 24 23 22 20 18 15 13 12
9 8 7 6 6 5 5 5 5 5 5 5 5 5 5 6 6 6 6 6 5 4 4 3 2 1 1 2 2 2 3 3 4 5 7 8 11 13 16 19 21 23 25 27 28 28 26 25 24 22 19 18
7 7 6 5 5 5 5 6 5 4 5 5 5 6 6 7 7 7 6 5 4 2 2 1 2 3 4 4 5 6 7 8 9 10 12 15 17 20 22 24 25 27 28 29 29 29 28 26 25 24 23 22
6 5 5 5 6 6 5 5 5 5 5 6 7 7 8 7 6 5 4 2 2 2 3 5 6 6 7 7 9 10 12 13 14 16 18 21 24 25 27 27 27 28 28 28 28 28 28 26 25 23 22 21
5 5 6 6 5 5 5 5 5 6 6 7 8 8 7 6 5 3 3 3 4 6 8 8 8 9 11 12 13 14 15 15 17 20 23 25 27 27 28 27 25 24 23 23 23 24 25 26 26 24 22 20
5 6 6 5 5 4 5 6 6 7 7 8 8 7 7 5 4 4 5 7 8 9 9 9 11 12 13 13 13 14 15 17 20 22 24 25 25 25 23 21 20 19 18 17 18 18 19 21 23 24 24 23
6 6 5 4 5 5 6 7 7 8 8 8 8 7 6 5 6 8 9 9 8 8 9 11 12 11 11 12 13 15 17 19 21 22 23 23 22 21 20 17 16 15 15 14 14 14 14 16 17 20 22 22
6 5 5 5 6 6 7 7 8 8 9 8 8 6 7 8 9 10 8 8 8 10 11 10 10 10 11 13 14 16 17 19 21 21 21 20 19 18 18 17 16 16 15 13 13 13 13 13 15 16 18 20
6 5 5 6 6 7 7 8 8 8 8 8 7 7 8 9 9 8 8 9 10 10 9 8 9 11 12 13 14 16 18 20 20 20 18 17 16 16 16 17 16 16 15 14 13 13 14 14 14 15 16 18
6 6 6 7 7 8 8 8 8 8 7 6 7 9 10 8 7 8 9 10 9 9 8 10 11 12 12 13 15 16 19 20 19 18 17 15 14 14 15 16 15 15 14 13 13 12 13 14 15 16 16 17
5 6 7 7 8 7 8 8 8 7 7 8 10 10 8 7 8 9 9 9 9 9 10 11 11 12 13 13 15 17 20 19 17 16 15 14 14 13 13 13 14 14 13 13 13 12 13 14 15 16 16 16
6 7 8 8 8 8 8 8 8 8 10 11 10 9 8 8 9 9 9 9 9 10 10 11 12 12 13 14 16 18 19 18 17 16 15 15 14 13 13 12 12 12 13 12 12 12 13 15 16 17 16 15
8 9 9 9 9 9 9 9 9 10 10 9 8 8 8 8 8 8 9 10 10 10 11 12 12 12 12 13 15 16 17 16 16 15 15 15 14 14 13 12 12 11 12 12 11 11 12 14 16 19 18 15
10 10 9 9 10 9 9 9 9 9 7 7 7 7 7 7 8 9 9 10 10 10 11 12 12 12 13 14 15 16 15 14 14 15 15 16 15 14 12 11 11 11 11 11 11 11 10 11 14 18 20 17
9 9 9 8 8 8 8 8 7 6 6 7 8 7 8 8 9 9 9 9 9 10 11 12 12 13 14 15 15 15 14 14 13 14 15 15 15 14 13 11 9 9 9 9 9 9 9 9 10 13 19 20
8 8 8 8 8 9 8 7 6 7 7 7 8 8 8 8 9 8 8 9 10 11 11 11 13 14 14 15 15 14 13 12 11 12 12 14 15 15 14 12 11 10 9 8 7 8 8 8 8 8 13 19
8 8 8 9 9 8 6 6 6 7 7 7 7 7 8 8 8 8 8 9 10 11 11 12 13 14 14 14 13 13 11 11 10 10 11 12 14 15 15 14 13 13 11 10 9 9 9 8 8 8 8 12
8 9 9 8 6 5 5 6 6 6 6 7 7 8 8 8 8 8 8 9 10 10 11 12 13 13 13 13 12 12 11 10 9 9 10 10 11 12 14 14 14 13 12 11 11 11 10 10 10 9 8 8
8 8 7 5 5 5 6 6 6 7 7 7 8 9 8 7 7 7 8 8 8 9 10 12 13 12 12 12 12 12 11 10 10 10 10 10 10 10 11 13 14 14 14 13 12 12 11 11 11 10 9 9
7 6 6 6 6 6 6 7 7 8 8 7 8 8 7 7 7 7 6 6 6 8 9 10 12 12 12 12 12 12 11 11 11 10 10 10 11 10 10 11 12 13 14 15 14 14 13 11 11 10 10 9
6 6 6 7 7 7 7 7 7 7 7 7 7 7 7 7 6 6 5 5 5 6 7 8 9 10 11 11 12 13 12 11 11 10 10 10 10 9 10 10 10 11 11 13 14 14 15 14 13 12 11 11
8 8 7 7 7 7 7 7 6 6 6 7 7 6 7 6 6 5 4 4 4 4 5 5 6 7 9 10 11 12 13 12 11 10 9 9 9 9 9 9 10 10 10 11 12 12 13 14 15 14 12 12
8 8 8 8 8 7 6 6 6 6 6 6 6 6 6 6 6 5 4 4 4 3 3 3 4 4 6 8 9 10 11 12 12 11 10 9 9 9 9 9 9 9 9 10 11 12 13 13 14 14 13 13
7 7 8 7 7 6 6 6 5 6 5 5 5 5 6 6 6 5 5 4 4 3 2 2 2 3 4 6 8 10 10 11 12 12 11 9 8 8 8 9 9 8 8 8 9 9 10 12 12 12 13 13
6 7 7 6 6 5 5 5 5 5 5 5 5 5 6 6 6 6 6 5 4 3 3 2 2 3 3 5 7 9 11 12 12 12 12 11 8 7 7 8 8 8 8 8 8 8 8 9 10 11 11 12
6 6 6 5 5 5 5 5 5 5 5 5 5 5 6 6 6 7 7 6 5 4 4 3 3 3 3 4 6 8 11 13 14 13 13 12 10 8 7 7 7 7 8 8 7 8 8 7 8 8 9 10
5 5 5 5 5 5 4 4 4 5 5 5 6 6 6 7 7 8 8 7 7 6 5 4 4 4 3 4 6 8 11 13 14 14 13 13 12 10 9 7 7 7 7 8 8 7 7 7 7 6 7 8
5 4 4 4 4 4 4 4 4 4 5 5 6 6 6 7 8 8 9 8 8 7 6 6 5 4 4 4 5 6 9 12 14 14 14 13 12 12 11 9 8 7 7 7 8 8 7 7 7 7 7 7
5 4 4 3 3 3 3 3 3 3 4 5 5 6 6 7 8 8 9 9 9 8 7 7 6 5 5 4 5 5 7 10 12 14 14 13 12 11 11 11 9 8 8 8 7 8 8 7 7 8 8 7
Height
5846 5844 5842 5840 5838 5836 5834 5832 5830 5828 5826 5823 5821 5818 5816 5813 5811 5809 5806 5804 5801 5798 5795 5793 5790 5787 5784 5781 5779 5775 5772 5769 5765 5761 5757 5753 5749 5745 5742 5739 5735 5732 5729 5726 5724 5722 5719 5717 5716 5714 5713 5712
5843 5841 5839 5837 5835 5833 5831 5829 5826 5824 5822 5819 5817 5814 5812 5810 5807 5805 5802 5799 5797 5794 5791 5788 5785 5782 5779 5776 5773 5769 5765 5762 5758 5754 5749 5744 5739 5735 5731 5727 5724 5721 5718 5715 5712 5711 5708 5706 5706 5704 5702 5701
5840 5838 5836 5834 5832 5830 5827 5825 5822 5820 5818 5815 5813 5811 5808 5806 5803 5801 5798 5795 5792 5790 5787 5783 5780 5777 5773 5770 5766 5763 5758 5754 5750 5745 5740 5735 5730 5725 5720 5716 5713 5710 5707 5703 5701 5699 5696 5694 5694 5693 5691 5690
5837 5835 5832 5830 5828 5826 5823 5821 5818 5816 5814 5812 5809 5807 5804 5801 5799 5796 5793 5790 5787 5784 5781 5778 5774 5771 5767 5763 5759 5755 5751 5746 5741 5736 5731 5725 5719 5714 5709 5705 5701 5699 5696 5693 5690 5688 5686 5684 5683 5681 5680 5679
5833 5831 5829 5827 5824 5822 5819 5817 5815 5812 5810 5807 5805 5802 5800 5797 5794 5792 5789 5785 5782 5778 5775 5771 5768 5764 5760 5756 5751 5747 5742 5737 5732 5726 5720 5714 5709 5704 5699 5695 5691 5688 5685 5682 5680 5677 5675 5673 5672 5670 5669 5668
5830 5828 5825 5823 5821 5818 5816 5813 5811 5808 5806 5803 5801 5798 5795 5793 5790 5786 5783 5780 5776 5772 5769 5765 5761 5757 5752 5748 5744 5739 5733 5728 5722 5716 5710 5704 5698 5694 5689 5685 5682 5678 5675 5673 5670 5668 5666 5664 5662 5660 5659 5658
5826 5824 5822 5819 5817 5814 5812 5809 5807 5804 5802 5799 5796 5794 5791 5788 5785 5781 5778 5774 5770 5766 5762 5759 5754 5750 5745 5741 5736 5731 5725 5719 5712 5706 5700 5694 5689 5685 5681 5677 5674 5671 5668 5665 5663 5660 5658 5655 5654 5652 5651 5649
5823 5821 5818 5815 5813 5810 5808 5805 5803 5800 5797 5795 5792 5789 5786 5783 5779 5775 5772 5768 5764 5761 5756 5752 5748 5744 5739 5734 5728 5723 5717 5710 5704 5698 5692 5687 5682 5678 5674 5671 5667 5664 5662 5659 5656 5654 5651 5649 5647 5645 5643 5642
5819 5817 5814 5812 5809 5807 5804 5801 5799 5796 5793 5790 5787 5785 5781 5777 5773 5769 5766 5762 5759 5755 5751 5747 5742 5738 5733 5728 5722 5716 5709 5703 5697 5691 5686 5681 5677 5673 5669 5666 5662 5659 5656 5653 5651 5648 5645 5643 5641 5638 5636 5635
5815 5813 5811 5808 5805 5803 5800 5797 5795 5792 5789 5786 5783 5780 5776 5772 5768 5764 5760 5757 5753 5749 5745 5740 5736 5731 5727 5721 5715 5708 5702 5696 5690 5685 5680 5676 5672 5668 5665 5661 5658 5654 5651 5648 5645 5643 5640 5638 5635 5633 5630 5629
5812 5810 5807 5804 5802 5799 5796 5793 5790 5788 5784 5781 5778 5774 5770 5766 5762 5758 5754 5751 5747 5743 5739 5734 5730 5725 5720 5714 5708 5701 5695 5689 5684 5679 5675 5671 5667 5664 5660 5657 5653 5650 5646 5643 5640 5637 5635 5632 5630 5627 5625 5623
5808 5806 5803 5801 5798 5795 5792 5789 5786 5783 5779 5776 5772 5768 5765 5761 5757 5753 5749 5746 5742 5737 5733 5728 5723 5718 5713 5707 5701 5694 5688 5683 5678 5674 5670 5666 5663 5659 5656 5652 5649 5645 5642 5639 5636 5632 5630 5627 5625 5622 5620 5618
5805 5802 5800 5797 5794 5791 5788 5785 5782 5778 5774 5771 5768 5764 5761 5756 5752 5748 5745 5741 5736 5731 5727 5722 5717 5712 5706 5700 5694 5688 5683 5677 5673 5669 5665 5662 5658 5655 5651 5648 5644 5641 5638 5635 5631 5628 5625 5622 5620 5617 5615 5613
5801 5798 5796 5793 5790 5787 5784 5781 5777 5774 5770 5767 5764 5760 5756 5752 5748 5744 5740 5736 5731 5726 5721 5716 5710 5704 5698 5693 5687 5682 5677 5673 5669 5665 5661 5658 5654 5650 5647 5644 5640 5637 5634 5631 5628 5624 5621 5618 5615 5612 5610 5608
5797 5795 5792 5789 5786 5783 5780 5777 5774 5770 5767 5763 5760 5756 5752 5747 5743 5739 5734 5729 5724 5719 5714 5708 5703 5697 5691 5686 5682 5677 5673 5669 5664 5661 5657 5654 5650 5646 5643 5639 5636 5633 5630 5627 5624 5620 5617 5614 5611 5608 5606 5604
5794 5792 5789 5786 5783 5780 5777 5773 5769 5766 5762 5759 5755 5750 5746 5742 5737 5733 5728 5723 5717 5712 5707 5702 5696 5691 5686 5681 5677 5673 5669 5665 5661 5656 5653 5649 5646 5642 5638 5635 5632 5629 5626 5623 5620 5616 5613 5610 5606 5604 5601 5599
5791 5788 5785 5782 5779 5775 5772 5768 5765 5761 5757 5753 5749 5745 5740 5736 5731 5727 5722 5717 5712 5707 5702 5697 5692 5687 5683 5678 5674 5669 5666 5662 5658 5653 5649 5645 5642 5638 5634 5631 5628 5625 5622 5619 5616 5613 5609 5606 5603 5600 5597 5595
5787 5784 5781 5777 5774 5771 5767 5764 5760 5756 5752 5748 5744 5739 5735 5730 5726 5722 5717 5713 5708 5703 5698 5693 5689 5684 5679 5675 5670 5666 5662 5658 5655 5651 5647 5642 5638 5634 5631 5628 5624 5621 5618 5615 5612 5609 5606 5603 5600 5597 5594 5591
5783 5780 5777 5773 5770 5767 5764 5760 5756 5752 5747 5743 5738 5734 5730 5726 5722 5718 5713 5709 5704 5699 5694 5689 5685 5680 5676 5671 5667 5663 5659 5655 5651 5648 5644 5640 5635 5631 5627 5624 5621 5618 5614 5611 5608 5605 5602 5599 5596 5593 5590 5588
5779 5776 5773 5770 5766 5763 5759 5755 5751 5747 5742 5738 5734 5730 5727 5723 5719 5714 5710 5705 5700 5695 5690 5686 5681 5677 5672 5668 5664 5660 5656 5652 5648 5644 5641 5637 5632 5628 5624 5620 5617 5614 5611 5608 5605 5602 5598 5595 5592 5590 5587 5584
5776 5772 5769 5766 5762 5758 5754 5750 5746 5742 5738 5734 5730 5727 5723 5719 5715 5710 5706 5701 5696 5692 5687 5683 5678 5673 5669 5664 5660 5656 5652 5648 5645 5641 5637 5634 5630 5625 5621 5617 5614 5610 5607 5604 5601 5598 5595 5592 5588 5586 5583 5580
5772 5768 5765 5761 5758 5754 5750 5747 5743 5739 5734 5730 5726 5723 5719 5715 5711 5707 5702 5697 5693 5688 5684 5680 5675 5670 5665 5661 5657 5653 5648 5644 5641 5637 5634 5630 5626 5622 5618 5615 5611 5607 5604 5600 5597 5594 5591 5588 5585 5582 5579 5577
5768 5765 5761 5758 5754 5750 5747 5743 5739 5734 5730 5726 5723 5719 5715 5711 5707 5703 5698 5693 5689 5685 5681 5677 5672 5667 5662 5658 5653 5649 5645 5641 5637 5634 5630 5626 5622 5618 5615 5611 5608 5604 5601 5597 5594 5591 5588 5584 5581 5578 5575 5573
5765 5762 5758 5754 5750 5747 5743 5739 5735 5730 5726 5723 5719 5715 5711 5707 5703 5698 5694 5690 5686 5682 5678 5673 5669 5664 5659 5654 5650 5646 5642 5638 5634 5630 5627 5623 5619 5615 5611 5607 5604 5601 5598 5594 5591 5587 5584 5581 5578 5575 5572 5569
5762 5758 5754 5750 5747 5743 5739 5735 5731 5726 5722 5718 5715 5711 5707 5703 5699 5694 5690 5686 5682 5678 5674 5670 5665 5661 5656 5651 5647 5643 5639 5635 5631 5627 5623 5620 5616 5613 5609 5604 5600 5597 5594 5591 5588 5584 5581 5578 5575 5572 5569 5566
5758 5755 5751 5747 5743 5739 5735 5731 5727 5723 5719 5715 5711 5707 5703 5699 5694 5690 5686 5682 5678 5675 5671 5666 5662 5657 5652 5648 5643 5639 5635 5631 5627 5623 5619 5615 5612 5609 5605 5602 5598 5594 5591 5587 5585 5581 5578 5575 5572 5569 5566 5563
5755 5751 5747 5744 5740 5736 5731 5727 5723 5719 5715 5711 5707 5703 5699 5695 5690 5686 5682 5679 5675 5671 5667 5663 5658 5653 5648 5644 5640 5635 5631 5627 5623 5619 5616 5612 5608 5604 5601 5598 5595 5591 5588 5584 5581 5578 5575 5571 5568 5566 5563 5559
5751 5748 5744 5740 5736 5732 5728 5723 5719 5715 5711 5707 5704 5700 5695 5691 5686 5682 5679 5675 5671 5668 5663 5659 5654 5649 5645 5640 5636 5632 5627 5623 5619 5616 5612 5608 5604 5600 5597 5594 5591 5587 5584 5581 5577 5574 5571 5568 5565 5562 5559 5556
5748 5744 5741 5737 5733 5729 5724 5720 5716 5711 5708 5704 5700 5696 5691 5687 5683 5679 5675 5671 5668 5664 5660 5655 5650 5646 5641 5637 5632 5628 5624 5619 5615 5611 5608 5604 5600 5597 5593 5589 5586 5584 5580 5577 5573 5570 5567 5565 5562 5558 5555 5552
5745 5741 5738 5734 5730 5725 5721 5716 5712 5708 5704 5701 5696 5692 5687 5683 5679 5675 5671 5668 5664 5660 5656 5651 5647 5642 5637 5633 5628 5624 5619 5615 5611 5607 5603 5599 5596 5593 5589 5585 5582 5579 5576 5573 5570 5566 5563 5560 5557 5554 5551 5548
5741 5738 5734 5730 5726 5722 5717 5712 5708 5705 5701 5697 5692 5688 5683 5680 5676 5672 5668 5664 5660 5656 5652 5647 5642 5638 5634 5629 5624 5620 5615 5611 5607 5603 5599 5595 5591 5588 5584 5581 5577 5574 5571 5569 5566 5563 5559 5556 5553 5550 5547 5544